Weather History for Owensboro, KY

Change the Weather History Date:

Friday, March 28, 2014

  Actual Average Record
Temperature  
Mean Temperature 56 °F -  
Max Temperature 61 °F 66 °F 82 °F (1985)
Min Temperature 50 °F 42 °F 25 °F (1955)
Degree Days  
Heating Degree Days 10    
Growing Degree Days 6 (Base 50)    
Moisture  
Dew Point 49 °F    
Average Humidity 86    
Maximum Humidity 100    
Minimum Humidity 56    
Precipitation  
Precipitation 0.32 in - - ()
Sea Level Pressure  
Sea Level Pressure 29.93 in    
Wind  
Wind Speed 14 mph (NW)    
Max Wind Speed 25 mph    
Max Gust Speed 32 mph    
Visibility 9 miles    
Events Rain , Thunderstorm    
Averages and records for this station are not official NWS values.
T = Trace of Precipitation, MM = Missing Value Source: NWS Daily Summary

Daily Weather History Graph

Daily Weather History Graph

Search for Another Location

Airport:

Trip Planner

Search our weather history database for the weather conditions in past years. The results will help you decide how hot, cold, wet, or windy it might be!

Date:

Astronomy

Mar. 28, 2014 Rise Set
Actual Time 6:40 AM CDT 7:07 PM CDT
Civil Twilight 6:13 AM CDT 7:34 PM CDT
Nautical Twilight 5:42 AM CDT 8:05 PM CDT
Astronomical Twilight 5:11 AM CDT 8:36 PM CDT
Moon 5:08 AM CDT (3/28) 5:05 PM CDT (3/28)
Length of Visible Light 13h 20m
Length of Day
12h 27m
Waning Crescent, 6% of the Moon is Illuminated
Mar 28
Waning Crescent
Mar 30
New
Apr 7
First Quarter
Apr 15
Full
Apr 22
Last Quarter

Hourly Weather History & Observations

Time (CDT) Temp. Dew Point Humidity Pressure Visibility Wind Dir Wind Speed Gust Speed Precip Events Conditions
12:56 AM 50.9 °F 50.0 °F 97% 29.83 in 10.0 mi South 23.0 mph - 0.02 in   Overcast
1:56 AM 52.0 °F 50.9 °F 96% 29.81 in 10.0 mi South 18.4 mph - 0.00 in   Overcast
2:21 AM 51.8 °F 51.8 °F 100% 29.82 in 10.0 mi SSW 16.1 mph - 0.00 in Rain Light Rain
2:56 AM 52.9 °F 52.9 °F 100% 29.81 in 10.0 mi SSW 18.4 mph - 0.00 in   Overcast
3:16 AM 53.6 °F 53.6 °F 100% 29.90 in 2.5 mi NW 25.3 mph 32.2 mph 0.05 in Rain Heavy Rain
3:18 AM 53.6 °F 53.6 °F 100% 29.90 in 1.2 mi NW 20.7 mph 32.2 mph 0.15 in Rain Heavy Rain
3:24 AM 51.8 °F 51.8 °F 100% 29.87 in 0.8 mi NW 4.6 mph 32.2 mph 0.25 in Rain Heavy Rain
3:28 AM 51.8 °F 51.8 °F 100% 29.85 in 1.2 mi Variable 3.5 mph - 0.26 in Rain Heavy Rain
3:32 AM 51.8 °F 51.8 °F 100% 29.85 in 2.0 mi SSE 5.8 mph - 0.27 in Rain Rain
3:35 AM 51.8 °F 51.8 °F 100% 29.86 in 3.0 mi South 10.4 mph - 0.28 in Rain , Thunderstorm Light Thunderstorms and Rain
3:56 AM 50.9 °F 50.9 °F 100% 29.83 in 8.0 mi SSE 11.5 mph - 0.29 in Rain , Thunderstorm Light Thunderstorms and Rain
4:48 AM 51.8 °F 51.8 °F 100% 29.82 in 10.0 mi SSE 11.5 mph - 0.00 in   Mostly Cloudy
4:56 AM 50.9 °F 50.9 °F 100% 29.81 in 10.0 mi SSE 13.8 mph - 0.00 in   Scattered Clouds
5:38 AM 53.6 °F 53.6 °F 100% 29.83 in 10.0 mi South 10.4 mph - N/A   Overcast
5:56 AM 52.9 °F 52.9 °F 100% 29.84 in 10.0 mi South 13.8 mph - 0.00 in Rain Light Rain
6:56 AM 54.0 °F 54.0 °F 100% 29.88 in 10.0 mi WNW 11.5 mph - 0.00 in   Mostly Cloudy
7:03 AM 53.6 °F 53.6 °F 100% 29.89 in 10.0 mi West 5.8 mph - N/A   Overcast
7:11 AM 55.4 °F 55.4 °F 100% 29.88 in 10.0 mi South 9.2 mph - N/A   Overcast
7:35 AM 55.4 °F 55.4 °F 100% 29.89 in 10.0 mi SSW 10.4 mph - N/A   Overcast
7:56 AM 55.9 °F 55.9 °F 100% 29.91 in 10.0 mi West 6.9 mph - 0.01 in Rain Light Rain
8:27 AM 53.6 °F 53.6 °F 100% 29.95 in 10.0 mi NW 15.0 mph - 0.00 in   Overcast
8:56 AM 52.0 °F 47.8 °F 86% 29.97 in 10.0 mi NW 16.1 mph - 0.00 in   Overcast
9:56 AM 52.0 °F 46.9 °F 83% 30.00 in 10.0 mi NW 13.8 mph - N/A   Mostly Cloudy
10:36 AM 51.8 °F 46.4 °F 82% 30.01 in 10.0 mi NNW 9.2 mph - N/A   Scattered Clouds
10:56 AM 52.0 °F 45.9 °F 80% 30.02 in 10.0 mi NW 11.5 mph - N/A   Mostly Cloudy
11:32 AM 53.6 °F 46.4 °F 77% 30.02 in 10.0 mi NW 12.7 mph - N/A   Scattered Clouds
11:56 AM 52.9 °F 45.9 °F 77% 30.02 in 10.0 mi NNW 6.9 mph - N/A   Clear
12:56 PM 54.9 °F 45.9 °F 72% 30.03 in 10.0 mi NW 9.2 mph - N/A   Clear
1:56 PM 57.9 °F 45.9 °F 64% 30.01 in 10.0 mi NNW 9.2 mph - N/A   Clear
2:56 PM 59.9 °F 45.9 °F 60% 30.01 in 10.0 mi NNW 9.2 mph - N/A   Clear
3:56 PM 61.0 °F 46.9 °F 60% 29.99 in 10.0 mi NNW 8.1 mph - N/A   Clear
4:56 PM 59.9 °F 45.0 °F 58% 29.99 in 10.0 mi North 8.1 mph - N/A   Clear
5:56 PM 61.0 °F 45.0 °F 56% 29.99 in 10.0 mi North 9.2 mph - N/A   Partly Cloudy
6:56 PM 57.9 °F 45.9 °F 64% 30.02 in 10.0 mi NNE 8.1 mph - N/A   Clear
7:56 PM 55.9 °F 45.0 °F 67% 30.02 in 10.0 mi North 6.9 mph - N/A   Scattered Clouds
8:56 PM 54.0 °F 45.0 °F 72% 30.02 in 10.0 mi NNE 10.4 mph - N/A   Partly Cloudy
9:56 PM 52.9 °F 43.9 °F 71% 30.03 in 10.0 mi North 8.1 mph - N/A   Mostly Cloudy
10:56 PM 52.0 °F 43.0 °F 71% 30.01 in 10.0 mi NNE 9.2 mph - N/A   Mostly Cloudy
11:56 PM 50.9 °F 43.9 °F 77% 30.00 in 10.0 mi NNE 10.4 mph - N/A   Overcast